Lapse_Rate
7.6 7.6 7.7 7.8 7.8 7.7 7.8 7.8 7.7 7.7 7.8 7.7 7.5 7.5 7.4 7.4 7.2 7.1 7.1 7.0 6.8 6.6 6.4 6.2 6.1 6.2 6.1 6.1 6.1 6.2 6.2 6.2 6.2 6.1 6.1 6.1 6.1 6.0 6.0 6.0 5.9 5.8 5.8
7.8 7.9 7.9 7.9 7.9 7.8 7.8 7.8 7.8 7.7 7.8 7.7 7.7 7.7 7.5 7.4 7.3 7.2 7.1 6.9 6.7 6.5 6.2 6.1 6.1 6.2 6.2 6.1 6.1 6.1 6.2 6.2 6.2 6.1 6.0 5.9 5.9 5.9 5.9 5.9 5.8 5.7 5.7
7.7 7.7 7.8 7.9 7.9 7.9 7.8 7.8 7.7 7.8 7.7 7.8 7.7 7.6 7.5 7.5 7.4 7.2 7.1 6.8 6.5 6.3 6.1 6.0 6.0 6.1 6.1 6.0 6.1 6.0 6.1 6.2 6.1 6.0 6.0 6.0 5.9 5.9 5.8 5.8 5.7 5.7 5.7
7.7 7.7 7.8 7.8 7.8 7.8 7.8 7.8 7.7 7.7 7.8 7.8 7.8 7.5 7.4 7.3 7.2 7.1 6.9 6.6 6.4 6.2 6.0 5.8 5.8 5.9 5.9 5.9 5.9 5.9 6.0 6.0 6.1 6.0 6.0 6.0 5.9 5.8 5.8 5.7 5.8 5.8 5.9
7.5 7.6 7.7 7.7 7.8 7.7 7.7 7.7 7.8 7.8 7.7 7.7 7.6 7.5 7.3 7.2 7.2 7.0 6.8 6.5 6.3 6.1 5.9 5.8 5.8 5.8 5.8 5.8 5.8 5.8 5.9 6.0 6.0 6.0 6.0 5.9 5.9 5.8 5.8 5.8 5.8 5.8 5.7
7.5 7.5 7.5 7.5 7.5 7.5 7.5 7.5 7.6 7.5 7.5 7.5 7.4 7.4 7.3 7.2 7.1 6.9 6.7 6.4 6.1 5.9 5.8 5.7 5.6 5.6 5.6 5.6 5.7 5.7 5.8 5.9 5.9 5.9 5.9 5.9 6.0 6.0 5.8 5.8 5.8 5.7 5.6
7.3 7.3 7.4 7.4 7.4 7.4 7.4 7.4 7.4 7.4 7.4 7.3 7.3 7.2 7.1 7.1 7.0 6.9 6.8 6.5 6.1 5.8 5.6 5.5 5.4 5.5 5.5 5.6 5.6 5.6 5.7 5.8 5.8 5.9 6.0 6.2 6.1 5.9 5.8 5.8 5.7 5.7 5.8
7.3 7.2 7.3 7.2 7.3 7.3 7.3 7.3 7.3 7.3 7.3 7.2 7.2 7.1 7.0 6.9 6.9 6.8 6.6 6.3 6.1 5.8 5.6 5.5 5.5 5.5 5.5 5.5 5.5 5.6 5.7 5.8 5.8 6.0 6.2 6.0 5.9 6.0 5.9 5.8 5.8 5.8 5.8
7.3 7.2 7.2 7.2 7.2 7.2 7.1 7.1 7.1 7.0 7.0 7.0 6.9 6.9 6.9 6.8 6.7 6.6 6.4 6.2 6.0 5.8 5.6 5.6 5.5 5.5 5.4 5.5 5.7 5.8 5.8 5.8 5.9 5.9 5.9 6.1 6.1 6.0 5.9 5.8 5.7 5.7 5.8
7.1 7.2 7.2 7.2 7.1 7.1 7.0 7.0 6.9 6.9 6.9 6.8 6.8 6.8 6.8 6.7 6.6 6.5 6.4 6.3 6.1 6.0 5.9 5.8 5.7 5.6 5.6 5.7 5.8 5.8 5.9 5.9 5.9 5.9 6.1 6.1 6.1 6.0 5.8 5.7 5.7 5.7 5.9
7.1 7.1 7.2 7.1 7.0 7.0 7.0 7.0 6.9 6.9 6.9 6.9 6.8 6.8 6.7 6.6 6.6 6.5 6.5 6.3 6.2 6.1 6.0 5.8 5.7 5.7 5.7 5.8 5.8 5.9 5.8 5.8 5.9 6.0 6.1 6.1 6.1 5.9 5.7 5.7 5.8 5.8 5.9
7.0 6.9 7.0 7.1 7.0 7.0 7.0 7.1 7.1 7.0 7.0 6.9 6.9 6.8 6.8 6.7 6.6 6.5 6.4 6.2 6.1 6.0 5.9 5.7 5.7 5.7 5.8 5.8 5.7 5.7 5.8 5.8 6.0 6.1 6.1 6.0 6.0 5.8 5.6 5.7 5.7 5.8 6.1
6.9 6.8 6.9 6.9 7.0 7.0 7.1 7.1 7.2 7.1 7.1 7.1 7.1 6.9 6.9 6.8 6.7 6.5 6.4 6.3 6.1 5.9 5.8 5.6 5.6 5.6 5.6 5.6 5.6 5.7 5.8 5.9 6.0 6.1 6.1 5.9 5.7 5.6 5.7 5.8 5.8 6.0 6.3
6.7 6.8 7.0 7.1 7.1 7.1 7.0 7.1 7.2 7.2 7.1 7.0 7.0 7.0 6.9 6.8 6.7 6.5 6.4 6.2 6.2 6.1 6.0 5.9 5.7 5.6 5.5 5.5 5.6 5.7 5.8 5.8 5.8 5.9 6.0 5.8 5.6 5.6 5.7 5.7 5.9 6.1 6.3
6.9 6.8 6.9 7.0 7.1 7.1 7.1 7.0 7.0 7.1 7.1 7.1 7.0 6.9 6.9 6.8 6.6 6.4 6.1 5.9 5.7 5.6 5.5 5.6 5.5 5.5 5.5 5.5 5.5 5.6 5.7 5.7 5.8 5.8 5.8 5.7 5.6 5.6 5.6 5.8 6.1 6.2 6.3
6.8 6.7 6.8 6.8 6.8 6.8 6.9 6.9 6.9 6.9 6.9 6.9 6.9 6.9 6.8 6.7 6.5 6.4 6.2 6.0 5.7 5.5 5.5 5.4 5.4 5.5 5.5 5.2 5.4 5.5 5.7 5.7 5.6 5.6 5.8 5.6 5.5 5.6 5.7 6.0 6.2 6.2 6.3
6.5 6.5 6.5 6.6 6.7 6.6 6.6 6.7 6.7 6.7 6.8 6.8 6.7 6.6 6.6 6.5 6.4 6.2 6.0 5.9 5.8 5.7 5.5 5.4 5.4 5.5 5.5 5.3 5.6 5.7 5.7 5.6 5.6 5.7 5.5 5.4 5.5 5.7 5.8 6.1 6.1 6.2 6.1
6.4 6.2 6.1 6.3 6.6 6.6 6.4 6.5 6.5 6.5 6.6 6.6 6.5 6.5 6.4 6.4 6.1 6.0 5.7 5.6 5.6 5.6 5.6 5.7 5.7 5.7 5.6 5.7 5.6 5.4 5.5 5.5 5.6 5.6 5.3 5.5 5.6 5.8 6.0 6.1 6.2 6.2 5.5
6.3 6.1 6.1 6.2 6.3 6.3 6.2 6.2 6.3 6.4 6.5 6.5 6.4 6.3 6.2 6.1 5.8 5.6 5.5 5.5 5.6 5.7 5.7 5.8 5.8 5.7 5.6 5.7 5.4 5.1 5.3 5.4 5.6 5.5 5.5 5.7 5.7 5.9 6.2 6.3 6.3 6.0 5.2
6.3 6.1 6.2 6.2 6.2 6.2 6.2 6.4 6.5 6.4 6.2 6.3 6.2 6.2 6.2 6.0 5.7 5.6 5.5 5.5 5.5 5.6 5.9 6.1 5.8 5.5 5.6 5.7 5.6 5.4 5.2 5.3 5.4 5.4 5.5 5.8 5.9 6.3 6.4 6.1 6.1 5.5 4.9
6.7 6.6 6.2 6.1 6.2 6.2 6.3 6.3 6.2 6.1 6.0 6.1 6.2 6.0 5.9 5.7 5.7 5.7 5.7 5.6 5.7 5.7 5.9 5.9 5.8 5.7 5.5 5.7 5.6 5.4 4.9 5.3 5.4 5.5 5.6 5.7 6.2 6.3 6.3 6.1 5.8 5.1 4.9
6.8 6.7 6.5 6.3 6.2 6.3 6.3 6.1 5.7 5.4 5.4 5.5 5.3 5.8 5.5 5.5 5.7 5.7 5.4 5.5 5.6 5.5 5.8 5.8 5.8 5.8 5.5 5.7 5.7 5.2 5.1 5.3 5.1 5.4 5.6 6.2 6.3 6.3 6.1 6.0 5.5 4.9 5.0
7.0 6.9 6.7 6.6 6.5 6.4 6.2 6.1 5.6 5.1 5.6 5.5 5.4 5.7 5.7 5.9 5.8 5.6 5.6 5.6 5.3 5.8 5.6 6.0 5.9 5.9 5.7 5.7 5.4 4.7 5.1 5.2 5.4 5.6 5.6 6.1 6.0 6.1 6.0 5.9 5.3 4.9 5.0
6.0 6.2 6.7 6.6 6.6 6.5 6.4 6.3 6.2 5.5 5.7 5.6 5.6 5.6 5.9 5.6 5.7 5.6 5.9 5.8 5.7 5.5 5.6 5.9 5.8 6.0 5.7 5.6 5.0 4.7 4.5 5.1 5.3 5.6 5.9 5.9 5.9 6.0 5.8 5.6 5.1 4.8 4.8
6.8 6.6 6.8 6.7 6.6 6.9 6.3 6.1 6.1 6.0 5.9 5.8 6.0 6.2 5.7 5.5 6.0 5.6 5.8 5.7 5.8 5.5 5.5 5.5 5.8 5.9 5.6 5.6 5.3 4.6 4.5 4.7 5.1 5.6 5.8 5.9 5.7 5.5 5.6 5.5 5.0 4.8 5.0
6.9 7.0 7.0 7.1 6.9 7.0 6.6 6.5 6.2 5.9 6.3 6.1 6.2 6.1 5.9 5.9 5.6 5.9 6.0 5.9 5.5 5.6 5.7 5.4 5.6 5.4 5.4 5.4 5.0 4.6 4.2 4.6 5.2 5.6 5.7 5.9 5.8 5.3 5.3 5.3 5.0 4.8 4.9
Wind_Speed
9 7 5 5 7 8 9 8 10 12 15 16 17 18 15 16 18 19 19 19 17 16 16 17 16 16 16 17 17 18 17 17 17 18 19 19 20 20 21 21 22 23 23
9 8 8 8 10 11 11 12 11 12 11 15 13 15 14 16 18 18 19 17 16 16 16 16 15 16 16 17 17 18 17 17 18 18 19 20 20 21 22 22 23 24 24
15 14 11 8 9 10 12 12 10 11 9 10 9 12 14 15 16 17 17 16 17 17 15 15 15 16 17 17 18 17 17 17 18 19 20 20 20 21 22 23 24 25 26
17 14 9 7 8 9 10 8 6 4 4 4 4 5 11 14 15 14 14 13 14 15 14 14 15 15 15 17 18 18 17 17 18 19 20 20 20 21 23 24 25 26 27
15 16 11 9 10 9 8 6 2 3 3 3 4 4 7 8 11 10 10 11 12 13 13 13 15 15 15 16 17 18 18 17 18 19 20 20 21 22 23 25 26 27 28
17 16 11 10 10 8 4 3 4 3 3 4 5 4 3 5 9 9 11 11 11 11 10 12 14 14 14 15 17 18 19 17 18 19 21 20 21 22 23 25 26 27 28
16 14 13 10 9 4 4 5 3 4 3 2 4 3 4 3 3 4 8 9 10 10 12 12 12 13 14 15 18 18 19 18 19 20 20 20 21 23 24 25 26 27 29
15 15 14 8 9 4 5 4 4 3 2 2 3 2 2 2 1 1 3 5 8 9 10 11 11 12 13 15 15 18 20 18 19 20 19 20 21 23 24 25 26 28 29
16 17 16 12 10 7 4 4 5 5 4 2 3 4 2 4 2 1 2 2 5 5 8 10 10 11 12 13 14 16 19 18 18 19 19 20 21 23 24 25 27 28 30
17 18 16 14 12 8 5 5 6 4 4 4 0 1 1 4 3 1 1 1 2 3 6 7 9 9 11 12 13 16 17 18 17 18 19 20 21 22 23 26 27 29 30
16 18 17 15 10 9 8 7 5 5 4 4 3 2 1 1 1 3 3 2 1 1 4 7 7 7 10 11 11 15 17 16 17 18 19 19 21 22 24 25 27 28 29
6 13 17 16 14 11 8 7 7 6 5 4 4 4 4 3 3 3 2 1 2 1 2 6 6 5 9 11 10 13 15 14 17 18 19 20 20 21 23 25 26 28 28
3 6 9 9 8 12 12 11 6 6 5 5 6 4 3 3 3 3 3 2 3 2 2 2 3 4 6 10 10 13 14 14 15 17 18 19 19 21 22 24 25 25 27
7 12 13 13 14 15 13 12 5 4 5 5 7 4 3 3 3 2 4 4 2 2 1 3 3 3 7 8 9 12 13 13 16 16 17 17 20 19 21 22 22 24 25
6 12 15 11 13 14 15 12 4 5 5 5 5 5 3 2 2 3 2 2 4 4 5 3 3 1 6 7 8 12 13 14 16 14 16 16 18 19 20 20 19 23 26
9 10 10 10 10 11 12 10 5 5 6 4 4 6 3 2 3 2 3 2 2 4 3 2 1 1 4 6 9 11 12 12 14 13 15 16 17 18 19 19 18 21 25
10 10 11 10 10 9 9 7 7 7 7 6 5 6 6 5 4 3 3 2 2 2 3 1 1 2 2 3 7 10 12 13 15 12 15 16 16 18 18 17 17 20 23
10 12 12 12 11 11 10 11 10 9 9 9 8 7 7 5 5 4 3 3 3 2 3 3 1 1 2 3 3 6 10 11 12 11 15 15 16 18 17 15 16 19 22
11 11 11 13 13 13 12 12 13 12 12 11 10 10 9 8 6 4 4 4 3 3 3 3 2 1 0 2 2 4 7 9 8 7 15 13 15 18 15 14 17 21 21
13 13 13 14 14 14 13 13 12 12 11 10 10 9 10 10 9 8 6 6 4 4 3 3 2 2 1 1 1 2 3 3 2 4 13 12 15 18 15 17 18 20 20
15 15 14 13 12 12 11 13 13 13 12 9 8 9 8 12 14 13 7 6 7 4 3 3 2 2 1 0 1 1 2 4 2 4 8 10 12 16 16 16 16 19 19
15 15 15 16 14 11 17 19 17 13 12 12 11 8 7 13 14 16 13 14 10 6 5 3 2 2 1 2 1 1 1 3 3 3 5 5 7 6 13 14 17 18 17
14 14 15 15 15 15 16 20 21 11 11 12 12 11 9 7 14 10 15 16 14 10 7 5 4 4 4 4 3 1 1 2 2 3 4 2 3 4 13 10 12 15 18
11 14 15 16 16 14 18 23 22 10 10 11 14 16 15 13 11 13 10 8 6 4 9 8 5 5 5 6 5 2 1 2 3 3 3 3 1 3 10 8 7 16 17
6 7 9 13 14 12 18 21 19 10 9 10 9 10 14 15 22 22 11 11 7 5 9 8 9 8 7 5 6 2 0 2 2 1 1 1 3 3 2 3 6 18 15
5 4 5 5 8 9 19 24 18 9 11 9 10 10 17 13 23 22 10 10 9 8 7 4 5 7 8 7 4 3 3 2 1 2 2 2 2 2 3 2 7 14 12
Wind_Direction
142 135 133 141 129 121 129 112 104 98 97 108 118 116 115 112 105 95 85 81 80 83 83 81 78 74 70 64 58 51 46 41 37 34 30 25 19 14 11 8 5 1 357
161 143 133 126 125 133 124 125 119 109 100 110 116 122 123 118 110 102 96 87 82 86 85 82 78 73 67 62 55 48 42 37 33 30 27 22 17 12 8 5 1 358 354
151 142 131 125 127 123 121 117 107 109 103 103 107 126 123 118 112 108 104 98 93 85 85 83 78 72 63 56 50 44 38 33 29 27 23 18 15 10 6 3 360 356 351
148 145 140 140 139 133 125 112 112 83 97 105 110 118 119 120 122 120 113 106 102 93 88 85 75 69 62 53 45 38 34 29 26 23 18 14 11 8 4 0 357 353 349
159 153 151 150 143 131 125 132 95 122 120 106 103 95 110 125 131 128 128 115 109 108 101 87 75 66 58 50 40 34 29 25 22 18 12 10 8 5 2 358 354 350 348
166 157 154 152 149 133 128 117 124 70 124 123 91 80 78 110 127 128 127 120 127 123 116 95 83 68 57 50 37 30 25 21 18 13 8 7 6 3 359 356 352 349 347
169 164 156 153 157 144 160 145 103 109 64 127 102 56 41 41 79 117 135 129 128 129 117 104 92 72 61 49 33 29 22 19 14 9 6 5 3 1 357 354 351 348 346
167 173 154 165 168 139 153 156 137 120 110 189 126 99 129 340 8 194 147 150 145 140 121 111 94 75 66 49 35 29 22 16 10 5 3 2 2 359 355 353 350 347 345
169 173 165 165 161 155 160 172 160 150 152 217 208 142 122 208 150 263 199 193 160 140 127 122 99 80 66 48 41 30 20 15 7 3 1 360 359 357 355 352 349 347 347
169 174 174 173 173 175 170 172 174 163 139 172 162 202 99 153 169 191 269 199 154 150 153 134 113 92 64 50 44 29 21 12 6 2 360 359 359 356 353 353 349 349 348
169 177 180 176 175 179 181 175 168 173 174 159 164 160 165 78 109 136 189 205 36 128 146 135 116 88 56 51 47 29 19 11 6 3 359 359 358 358 356 351 351 351 347
169 183 181 179 183 178 178 186 186 181 185 180 175 182 171 170 191 148 124 151 168 150 97 110 110 80 56 53 45 30 19 12 6 3 358 359 360 358 354 354 353 352 350
170 185 185 174 179 187 189 184 179 183 183 184 179 198 192 186 151 140 128 146 149 187 140 88 111 71 62 53 39 25 19 12 7 1 359 359 1 358 357 355 355 352 352
187 184 192 188 188 184 186 186 180 181 178 184 188 184 176 188 178 165 158 145 136 194 179 164 166 66 59 53 34 18 17 9 8 5 2 2 2 357 358 355 355 353 2
189 188 190 189 188 187 181 179 178 185 176 182 190 178 156 181 168 173 157 137 145 179 223 209 165 73 51 46 29 17 16 9 8 10 6 5 358 357 356 353 351 356 2
193 190 190 189 183 190 182 176 175 173 173 184 174 171 173 159 141 110 123 128 116 141 181 163 168 156 54 43 25 17 14 6 9 9 7 2 357 357 353 354 351 351 356
196 194 192 190 186 183 186 179 182 173 183 178 175 180 182 155 157 146 134 122 119 112 125 234 133 147 74 36 14 10 12 4 4 6 5 0 358 355 353 355 349 354 353
200 198 197 193 193 191 190 188 186 187 187 189 191 176 179 163 165 166 157 138 128 95 118 126 125 89 65 4 9 4 3 358 359 1 3 4 357 355 357 355 352 357 357
202 203 199 199 195 196 195 203 195 188 194 195 186 184 177 164 169 168 161 150 138 115 106 124 137 66 149 26 348 340 336 343 357 6 6 3 356 357 357 355 357 355 357
202 204 205 205 201 199 200 200 200 197 192 192 184 181 174 180 174 169 166 162 148 139 125 111 132 158 166 55 47 328 325 307 319 10 360 357 355 355 356 355 354 351 354
207 205 205 207 204 202 203 198 196 201 192 181 176 178 178 177 174 171 160 164 154 143 140 143 146 159 107 66 28 294 290 313 291 36 355 339 335 349 348 348 342 354 357
212 204 205 205 200 205 204 196 194 196 195 188 184 173 161 162 166 168 162 156 151 154 155 147 143 106 165 190 217 258 298 350 331 350 355 320 324 323 334 337 345 357 353
208 206 208 205 208 209 195 198 199 199 192 182 168 161 160 161 149 147 151 144 139 130 152 153 152 175 179 185 181 252 275 246 246 294 357 297 305 308 312 319 347 353 359
233 216 210 207 209 212 195 193 191 182 183 190 177 170 160 154 151 144 135 125 125 144 167 159 164 170 171 193 206 169 252 266 283 319 322 286 300 280 308 326 338 355 353
249 242 235 215 209 209 189 183 170 167 163 167 164 172 159 150 156 152 147 145 149 199 179 156 166 164 162 159 132 128 301 12 353 265 230 265 293 296 289 308 324 344 344
250 239 220 231 247 211 181 173 165 160 156 152 147 152 152 149 159 161 163 163 171 175 150 119 118 114 114 115 116 160 172 134 288 330 253 316 311 345 320 269 304 330 335